Location: Bettgenhausen
(50.6463°N, 7.5681°E)
Time: 03:25:39
(UTC+00:00)

Lacrosse 4 Rocket - Pass Details

Date: 27 February 2020
Orbit: 537 x 622 km, 68.0° (Epoch: 09 April)

Event Time Altitude Azimuth Distance (km) Brightness Sun altitude
Rises 17:42:58 0° 255° (WSW) 2,784 7.1 -6.5°
Reaches altitude 10° 17:45:34 10° 271° (W) 1,905 5.9 -6.9°
Maximum altitude 17:48:58 22° 323° (NW) 1,299 3.6 -7.5°
Drops below altitude 10° 17:52:27 10° 16° (NNE) 1,955 3.9 -8.0°
Sets 17:55:09 0° 31° (NNE) 2,876 4.6 -8.4°
